| time (UTC) | temp C | wind direction | speed KPH | gust KPH | rain 1hr cm | rain 24hr cm | rain mn cm | humidity % | barometer mb |
| 20260831210011 | 29 | 219 | 6.4 | 9.7 | 0.00 | 0.00 | 0.00 | 67 | 1018.0 |
| 20260831204508 | 28 | 228 | 1.6 | 4.8 | 0.00 | 0.00 | 0.00 | 74 | 1018.3 |
| 20260831203003 | 28 | 226 | 4.8 | 11.3 | 0.00 | 0.00 | 0.00 | 68 | 1018.4 |
| 20260831201526 | 29 | 247 | 3.2 | 12.9 | 0.00 | 0.00 | 0.00 | 68 | 1018.6 |
| 20260831200012 | 30 | 228 | 4.8 | 14.5 | 0.00 | 0.00 | 0.00 | 70 | 1019.0 |
| 20260831194518 | 30 | 249 | 3.2 | 9.7 | 0.00 | 0.00 | 0.00 | 71 | 1019.2 |
| 20260831193014 | 29 | 300 | 1.6 | 6.4 | 0.00 | 0.00 | 0.00 | 74 | 1019.4 |
| 20260831191505 | 28 | 236 | 4.8 | 14.5 | 0.00 | 0.00 | 0.00 | 75 | 1019.5 |
| 20260831190007 | 28 | 232 | 4.8 | 9.7 | 0.00 | 0.00 | 0.00 | 72 | 1019.5 |
| 20260831184513 | 28 | 221 | 6.4 | 14.5 | 0.00 | 0.00 | 0.00 | 71 | 1019.6 |
| 20260831183006 | 30 | 227 | 6.4 | 17.7 | 0.00 | 0.00 | 0.00 | 70 | 1019.6 |
| 20260831181504 | 30 | 230 | 4.8 | 14.5 | 0.00 | 0.00 | 0.00 | 75 | 1019.8 |
| 20260831180003 | 29 | 235 | 6.4 | 19.3 | 0.00 | 0.00 | 0.00 | 71 | 1020.0 |
| 20260831174503 | 30 | 261 | 6.4 | 14.5 | 0.00 | 0.00 | 0.00 | 73 | 1020.1 |
| 20260831173004 | 29 | 279 | 4.8 | 19.3 | 0.00 | 0.00 | 0.00 | 73 | 1020.1 |
| 20260831171512 | 30 | 200 | 4.8 | 16.1 | 0.00 | 0.00 | 0.00 | 70 | 1020.1 |
| 20260831170006 | 29 | 216 | 8.0 | 17.7 | 0.00 | 0.00 | 0.00 | 70 | 1020.2 |
| 20260831164503 | 29 | 232 | 8.0 | 17.7 | 0.00 | 0.00 | 0.00 | 70 | 1020.3 |
| 20260831163004 | 29 | 250 | 6.4 | 14.5 | 0.00 | 0.00 | 0.00 | 70 | 1020.4 |
| 20260831161504 | 28 | 261 | 6.4 | 16.1 | 0.00 | 0.00 | 0.00 | 70 | 1020.4 |
| 20260831160006 | 28 | 220 | 6.4 | 16.1 | 0.00 | 0.00 | 0.00 | 71 | 1020.4 |
| 20260831154538 | 28 | 240 | 4.8 | 11.3 | 0.00 | 0.00 | 0.00 | 72 | 1020.3 |
| 20260831153012 | 28 | 232 | 8.0 | 12.9 | 0.00 | 0.00 | 0.00 | 73 | 1020.1 |
| 20260831151507 | 27 | 220 | 6.4 | 14.5 | 0.00 | 0.00 | 0.00 | 74 | 1020.1 |
| 20260831150007 | 27 | 231 | 4.8 | 9.7 | 0.00 | 0.00 | 0.00 | 76 | 1020.0 |
| 20260831144505 | 26 | 245 | 4.8 | 11.3 | 0.00 | 0.00 | 0.00 | 77 | 1019.9 |
| 20260831143004 | 27 | 242 | 4.8 | 14.5 | 0.00 | 0.00 | 0.00 | 76 | 1019.8 |
| 20260831141517 | 26 | 241 | 8.0 | 14.5 | 0.00 | 0.00 | 0.00 | 79 | 1019.7 |
| 20260831140016 | 25 | 201 | 8.0 | 14.5 | 0.00 | 0.00 | 0.00 | 80 | 1019.7 |
| 20260831134508 | 25 | 232 | 6.4 | 11.3 | 0.00 | 0.00 | 0.00 | 83 | 1019.9 |
| 20260831133022 | 23 | 240 | 6.4 | 12.9 | 0.00 | 0.00 | 0.00 | 85 | 1019.9 |
| 20260831131506 | 23 | 227 | 4.8 | 8.0 | 0.00 | 0.00 | 0.00 | 85 | 1020.0 |
| 20260831130004 | 23 | 217 | 4.8 | 8.0 | 0.00 | 0.00 | 0.00 | 86 | 1020.0 |
| 20260831124516 | 22 | 221 | 3.2 | 6.4 | 0.00 | 0.00 | 0.00 | 87 | 1019.8 |
| 20260831123009 | 22 | 210 | 3.2 | 6.4 | 0.00 | 0.00 | 0.00 | 88 | 1019.8 |
| 20260831121518 | 22 | 216 | 1.6 | 4.8 | 0.00 | 0.00 | 0.00 | 88 | 1019.6 |
| 20260831120016 | 21 | 206 | 3.2 | 4.8 | 0.00 | 0.00 | 0.00 | 88 | 1019.6 |
| 20260831114505 | 21 | 212 | 3.2 | 4.8 | 0.00 | 0.00 | 0.00 | 87 | 1019.6 |
| 20260831113011 | 21 | 216 | 1.6 | 4.8 | 0.00 | 0.00 | 0.00 | 87 | 1019.4 |
| 20260831111507 | 21 | 213 | 3.2 | 4.8 | 0.00 | 0.00 | 0.00 | 88 | 1019.4 |
| 20260831110003 | 21 | 207 | 3.2 | 4.8 | 0.00 | 0.00 | 0.00 | 89 | 1019.2 |
| 20260831104533 | 20 | 191 | 1.6 | 3.2 | 0.00 | 0.00 | 0.00 | 90 | 1019.0 |
| 20260831103004 | 20 | 191 | 1.6 | 1.6 | 0.00 | 0.00 | 0.00 | 91 | 1018.9 |
| 20260831101516 | 21 | 191 | 1.6 | 1.6 | 0.00 | 0.00 | 0.00 | 90 | 1018.8 |
| 20260831100015 | 21 | 191 | 0.0 | 1.6 | 0.00 | 0.00 | 0.00 | 90 | 1019.0 |
| 20260831094512 | 21 | 191 | 1.6 | 1.6 | 0.00 | 0.00 | 0.00 | 90 | 1018.9 |
| 20260831093006 | 21 | 191 | 0.0 | 3.2 | 0.00 | 0.00 | 0.00 | 90 | 1019.1 |
| 20260831091530 | 21 | 191 | 0.0 | 3.2 | 0.00 | 0.00 | 0.00 | 91 | 1019.0 |
| 20260831090018 | 20 | 191 | 1.6 | 1.6 | 0.00 | 0.00 | 0.00 | 91 | 1018.9 |
| 20260831084524 | 20 | 191 | 1.6 | 3.2 | 0.00 | 0.00 | 0.00 | 91 | 1018.7 |
| 20260831083035 | 20 | 191 | 3.2 | 3.2 | 0.00 | 0.00 | 0.00 | 91 | 1018.5 |
| 20260831081508 | 20 | 191 | 1.6 | 3.2 | 0.00 | 0.00 | 0.00 | 92 | 1018.5 |
| 20260831080017 | 20 | 191 | 1.6 | 3.2 | 0.00 | 0.00 | 0.00 | 92 | 1018.5 |
| 20260831074509 | 20 | 191 | 1.6 | 1.6 | 0.00 | 0.00 | 0.00 | 92 | 1018.5 |
| 20260831073031 | 20 | 167 | 0.0 | 4.8 | 0.00 | 0.00 | 0.00 | 92 | 1018.6 |
| 20260831071530 | 20 | 167 | 0.0 | 4.8 | 0.00 | 0.00 | 0.00 | 92 | 1018.6 |
| 20260831070031 | 20 | 167 | 0.0 | 4.8 | 0.00 | 0.00 | 0.00 | 93 | 1018.7 |
| 20260831064514 | 20 | 204 | 1.6 | 1.6 | 0.00 | 0.00 | 0.00 | 93 | 1018.8 |
| 20260831063019 | 20 | 188 | 1.6 | 3.2 | 0.00 | 0.00 | 0.00 | 92 | 1018.9 |
| 20260831061514 | 20 | 155 | 1.6 | 1.6 | 0.00 | 0.00 | 0.00 | 92 | 1019.0 |
| 20260831060011 | 20 | 155 | 0.0 | 3.2 | 0.00 | 0.00 | 0.00 | 91 | 1019.2 |
| 20260831054515 | 20 | 155 | 0.0 | 3.2 | 0.00 | 0.00 | 0.00 | 91 | 1019.3 |
| 20260831053019 | 20 | 155 | 0.0 | 0.0 | 0.00 | 0.00 | 0.00 | 91 | 1019.4 |
| 20260831051533 | 20 | 155 | 0.0 | 3.2 | 0.00 | 0.00 | 0.00 | 91 | 1019.6 |
| 20260831050042 | 20 | 155 | 0.0 | 3.2 | 0.00 | 0.00 | 0.00 | 91 | 1019.6 |
| 20260831044520 | 21 | 155 | 0.0 | 3.2 | 0.00 | 0.00 | 0.00 | 90 | 1019.4 |
| 20260831043014 | 21 | 155 | 0.0 | 3.2 | 0.00 | 0.00 | 0.00 | 90 | 1019.4 |
| 20260831041531 | 21 | 155 | 0.0 | 3.2 | 0.00 | 0.00 | 0.00 | 90 | 1019.5 |
| 20260831040031 | 21 | 155 | 1.6 | 3.2 | 0.00 | 0.00 | 0.00 | 91 | 1019.5 |
| 20260831034533 | 21 | 155 | 0.0 | 0.0 | 0.00 | 0.00 | 0.00 | 90 | 1019.5 |
| 20260831033010 | 21 | 155 | 0.0 | 3.2 | 0.00 | 0.00 | 0.00 | 90 | 1019.4 |
| 20260831031504 | 21 | 43 | 0.0 | 3.2 | 0.00 | 0.00 | 0.00 | 90 | 1019.5 |
| 20260831030017 | 21 | 43 | 0.0 | 3.2 | 0.00 | 0.00 | 0.00 | 89 | 1019.6 |
| 20260831024512 | 21 | 43 | 0.0 | 3.2 | 0.00 | 0.00 | 0.00 | 89 | 1019.7 |
| 20260831023012 | 21 | 43 | 0.0 | 3.2 | 0.00 | 0.00 | 0.00 | 89 | 1019.6 |
| 20260831021512 | 21 | 43 | 0.0 | 3.2 | 0.00 | 0.00 | 0.00 | 88 | 1019.7 |
| 20260831020005 | 21 | 43 | 0.0 | 3.2 | 0.00 | 0.00 | 0.00 | 88 | 1019.8 |
| 20260831014508 | 21 | 43 | 0.0 | 3.2 | 0.00 | 0.00 | 0.00 | 89 | 1019.6 |
| 20260831013009 | 21 | 43 | 0.0 | 3.2 | 0.00 | 0.00 | 0.00 | 88 | 1019.7 |
| 20260831011524 | 22 | 43 | 1.6 | 3.2 | 0.00 | 0.00 | 0.00 | 88 | 1019.4 |
| 20260831010029 | -17 | 0.0 | 0.0 | 0.00 | 0.00 | 0.00 | 1019.2 | ||
| 20260831004515 | -17 | 0.0 | 0.0 | 0.00 | 0.00 | 0.00 | 1019.1 | ||
| 20260831003013 | -17 | 0.0 | 0.0 | 0.00 | 0.00 | 0.00 | 1019.0 | ||
| 20260831001508 | 23 | 325 | 0.0 | 3.2 | 0.00 | 0.00 | 0.00 | 88 | 1018.8 |
| 20260831000006 | 23 | 264 | 0.0 | 3.2 | 0.00 | 0.00 | 0.00 | 86 | 1018.8 |
| 20260830234506 | 24 | 264 | 0.0 | 3.2 | 0.00 | 0.00 | 0.00 | 87 | 1018.7 |
| 20260830233029 | 24 | 264 | 0.0 | 0.0 | 0.00 | 0.00 | 0.00 | 85 | 1018.4 |
| 20260830231510 | 25 | 264 | 0.0 | 3.2 | 0.00 | 0.00 | 0.00 | 79 | 1018.4 |
| 20260830230030 | 26 | 238 | 0.0 | 3.2 | 0.00 | 0.00 | 0.00 | 72 | 1018.4 |
| 20260830224526 | 27 | 229 | 3.2 | 8.0 | 0.00 | 0.00 | 0.00 | 69 | 1018.0 |
| 20260830223018 | 27 | 210 | 4.8 | 12.9 | 0.00 | 0.00 | 0.00 | 66 | 1017.8 |
| 20260830221507 | 28 | 202 | 4.8 | 12.9 | 0.00 | 0.00 | 0.00 | 66 | 1017.9 |
| 20260830220026 | 28 | 247 | 3.2 | 9.7 | 0.00 | 0.00 | 0.00 | 68 | 1018.1 |
| 20260830214519 | 27 | 213 | 3.2 | 11.3 | 0.00 | 0.00 | 0.00 | 67 | 1018.1 |
| 20260830213025 | 27 | 194 | 3.2 | 12.9 | 0.00 | 0.00 | 0.00 | 67 | 1018.0 |
| 20260830211508 | 27 | 205 | 3.2 | 9.7 | 0.00 | 0.00 | 0.00 | 67 | 1018.0 |